Tracking 28790 objects as of 18-Apr-2024
HD Live streaming from Space Station
objects crossing your sky now

TANSEI 3 DEB

Track TANSEI 3 DEB now!
10-day predictions


NORAD ID: 9982
Int'l Code: 1977-012F
Perigee: 792.3 km
Apogee: 3,749.2 km
Inclination: 65.9 °
Period: 133.2 minutes
Semi major axis: 8641 km
RCS: 0.0721 m2 (small)
Launch date: February 19, 1977
Source: Japan (JPN)
Launch site: KAGOSHIMA SPACE CENTER UNIVERSITY OF TOKYO (KSCUT)

Note: This is SATELLITE DEBRIS
Your satellite tracking list
Your tracking list is empty




NASA's NSSDC Master Catalog

Two Line Element Set (TLE):
1 09982U 77012F   24108.23481769  .00000195  00000-0  60614-3 0  9995
2 09982  65.8975 165.4014 1710811 137.8502 236.7553 10.80681510860786
Source of the keplerian elements: AFSPC